Simultaneous Nadir Overpasses (SNOs) Predictions

Prediction of SNOs between GOES-17 and METOP-C Satellite Orbit:

Table of predicted SNOs for the next 14.0 days since TLE Epoch: 2/5/2022
Index Date Time (GOES-17) GOES-17 Lat,Lon METOP-C Lat,Lon Distance(km) Time Diff (sec)
1 02/05/2022 18:43:28 0.02,-137.20 0.10,-137.66 51.69 80
2 02/08/2022 06:39:10 -0.02,-137.19 -0.01,-137.26 8.38 80
3 02/10/2022 18:37:21 0.01,-137.17 -0.06,-136.82 40.83 80
4 02/12/2022 06:59:01 -0.02,-137.15 -1.00,-141.40 485.21 80
5 02/13/2022 06:38:23 -0.01,-137.14 0.18,-136.42 82.40 80
6 02/14/2022 18:54:33 0.00,-137.13 0.87,-140.97 438.73 80
7 02/15/2022 18:36:34 0.00,-137.11 -0.24,-135.98 128.87 80
8 02/17/2022 06:52:54 -0.00,-137.08 -0.80,-140.57 398.20 80
9 02/18/2022 06:34:55 -0.00,-137.06 0.32,-135.58 169.18 80
